Time,TemperatureF,DewpointF,PressureIn,WindDirection,WindDirectionDegrees,WindSpeedMPH,WindSpeedGustMPH,Humidity,HourlyPrecipIn,Conditions,Clouds,dailyrainin,SolarRadiationWatts/m^2,SoftwareType,DateUTC
2013-03-17 00:02:00,33.0,24.0,-100.00,SSW,206,2.0,6.0,70,0.00,,,0.00,0.000000,,2013-03-17 06:02:00,
2013-03-17 00:12:00,33.0,24.0,-100.00,SSW,206,2.0,6.0,70,0.00,,,0.00,0.000000,,2013-03-17 06:12:00,
2013-03-17 00:42:00,31.0,29.0,-100.00,NNW,334,1.0,8.0,94,0.00,,,0.00,0.000000,,2013-03-17 06:42:00,
2013-03-17 00:52:00,31.0,29.0,-100.00,NNW,334,1.0,8.0,94,0.00,,,0.00,0.000000,,2013-03-17 06:52:00,
2013-03-17 01:02:00,31.0,29.0,-100.00,NNW,334,1.0,8.0,94,0.00,,,0.00,0.000000,,2013-03-17 07:02:00,
2013-03-17 01:12:00,31.0,29.0,-100.00,NNW,334,1.0,8.0,94,0.00,,,0.00,0.000000,,2013-03-17 07:12:00,
2013-03-17 01:42:00,31.0,30.0,-100.00,SE,125,4.0,8.0,95,0.00,,,0.00,0.000000,,2013-03-17 07:42:00,
2013-03-17 01:52:00,31.0,30.0,-100.00,SE,125,4.0,8.0,95,0.00,,,0.00,0.000000,,2013-03-17 07:52:00,
2013-03-17 02:02:00,31.0,30.0,-100.00,SE,125,4.0,8.0,95,0.00,,,0.00,0.000000,,2013-03-17 08:02:00,
2013-03-17 02:12:00,31.0,30.0,-100.00,SE,125,4.0,8.0,95,0.00,,,0.00,0.000000,,2013-03-17 08:12:00,
2013-03-17 02:42:00,30.0,26.0,-100.00,ESE,105,4.0,10.0,84,0.00,,,0.00,0.000000,,2013-03-17 08:42:00,
2013-03-17 02:52:00,30.0,26.0,-100.00,ESE,105,4.0,10.0,84,0.00,,,0.00,0.000000,,2013-03-17 08:52:00,
2013-03-17 03:02:00,30.0,26.0,-100.00,ESE,105,4.0,10.0,84,0.00,,,0.00,0.000000,,2013-03-17 09:02:00,
2013-03-17 03:12:00,30.0,26.0,-100.00,ESE,105,4.0,10.0,84,0.00,,,0.00,0.000000,,2013-03-17 09:12:00,
2013-03-17 03:43:00,30.0,27.0,-100.00,ESE,113,7.0,11.0,87,0.00,,,0.00,0.000000,,2013-03-17 09:43:00,
2013-03-17 03:53:00,30.0,27.0,-100.00,ESE,113,7.0,11.0,87,0.00,,,0.00,0.000000,,2013-03-17 09:53:00,
2013-03-17 04:02:00,30.0,27.0,-100.00,ESE,113,7.0,11.0,87,0.00,,,0.00,0.000000,,2013-03-17 10:02:00,
2013-03-17 04:12:00,30.0,27.0,-100.00,ESE,113,7.0,11.0,87,0.00,,,0.00,0.000000,,2013-03-17 10:12:00,
2013-03-17 04:42:00,30.0,23.0,-100.00,South,169,9.0,21.0,75,0.00,,,0.00,0.000000,,2013-03-17 10:42:00,
2013-03-17 04:52:00,30.0,23.0,-100.00,South,169,9.0,21.0,75,0.00,,,0.00,0.000000,,2013-03-17 10:52:00,
2013-03-17 05:02:00,30.0,23.0,-100.00,South,169,9.0,21.0,75,0.00,,,0.00,0.000000,,2013-03-17 11:02:00,
2013-03-17 05:12:00,30.0,23.0,-100.00,South,169,9.0,21.0,75,0.00,,,0.00,0.000000,,2013-03-17 11:12:00,
2013-03-17 05:43:00,26.0,17.0,-100.00,WSW,251,7.0,24.0,67,0.00,,,0.00,0.000000,,2013-03-17 11:43:00,
2013-03-17 05:52:00,26.0,17.0,-100.00,WSW,251,7.0,24.0,67,0.00,,,0.00,0.000000,,2013-03-17 11:52:00,
2013-03-17 06:02:00,26.0,17.0,-100.00,WSW,251,7.0,24.0,67,0.00,,,0.00,0.000000,,2013-03-17 12:02:00,
2013-03-17 06:12:00,26.0,17.0,-100.00,WSW,251,7.0,24.0,67,0.00,,,0.00,0.000000,,2013-03-17 12:12:00,
2013-03-17 06:43:00,24.0,15.0,-100.00,SE,137,7.0,12.0,67,0.00,,,0.00,0.000000,,2013-03-17 12:43:00,
2013-03-17 06:52:00,24.0,15.0,-100.00,SE,137,7.0,12.0,67,0.00,,,0.00,0.000000,,2013-03-17 12:52:00,
2013-03-17 07:01:00,24.0,15.0,-100.00,SE,137,7.0,12.0,67,0.00,,,0.00,0.000000,,2013-03-17 13:01:00,
2013-03-17 07:12:00,24.0,15.0,-100.00,SE,137,7.0,12.0,67,0.00,,,0.00,0.000000,,2013-03-17 13:12:00,
2013-03-17 07:43:00,23.0,6.0,-100.00,West,268,6.0,21.0,47,0.00,,,0.00,0.000000,,2013-03-17 13:43:00,
2013-03-17 07:52:00,23.0,6.0,-100.00,West,268,6.0,21.0,47,0.00,,,0.00,0.000000,,2013-03-17 13:52:00,
2013-03-17 08:02:00,23.0,6.0,-100.00,West,268,6.0,21.0,47,0.00,,,0.00,0.000000,,2013-03-17 14:02:00,
2013-03-17 08:11:00,23.0,6.0,-100.00,West,268,6.0,21.0,47,0.00,,,0.00,0.000000,,2013-03-17 14:11:00,
2013-03-17 08:42:00,21.0,5.0,-100.00,SSW,213,7.0,11.0,50,0.00,,,0.00,0.000000,,2013-03-17 14:42:00,
2013-03-17 08:52:00,21.0,5.0,-100.00,SSW,213,7.0,11.0,50,0.00,,,0.00,0.000000,,2013-03-17 14:52:00,
2013-03-17 09:02:00,21.0,5.0,-100.00,SSW,213,7.0,11.0,50,0.00,,,0.00,0.000000,,2013-03-17 15:02:00,
2013-03-17 09:11:00,21.0,5.0,-100.00,SSW,213,7.0,11.0,50,0.00,,,0.00,0.000000,,2013-03-17 15:11:00,
2013-03-17 09:43:00,22.0,14.0,-100.00,South,182,5.0,15.0,70,0.00,,,0.00,0.000000,,2013-03-17 15:43:00,
2013-03-17 09:53:00,22.0,14.0,-100.00,South,182,5.0,15.0,70,0.00,,,0.00,0.000000,,2013-03-17 15:53:00,
2013-03-17 10:03:00,22.0,14.0,-100.00,South,182,5.0,15.0,70,0.00,,,0.00,0.000000,,2013-03-17 16:03:00,
2013-03-17 10:12:00,22.0,14.0,-100.00,South,182,5.0,15.0,70,0.00,,,0.00,0.000000,,2013-03-17 16:12:00,
2013-03-17 10:43:00,27.0,18.0,-100.00,SSE,148,6.0,11.0,69,0.00,,,0.00,0.000000,,2013-03-17 16:43:00,
2013-03-17 10:52:00,27.0,18.0,-100.00,SSE,148,6.0,11.0,69,0.00,,,0.00,0.000000,,2013-03-17 16:52:00,
2013-03-17 11:02:00,27.0,18.0,-100.00,SSE,148,6.0,11.0,69,0.00,,,0.00,0.000000,,2013-03-17 17:02:00,
2013-03-17 11:12:00,27.0,18.0,-100.00,SSE,148,6.0,11.0,69,0.00,,,0.00,0.000000,,2013-03-17 17:12:00,
2013-03-17 11:42:00,26.0,16.0,-100.00,NNW,339,5.0,15.0,65,0.02,,,0.02,0.000000,,2013-03-17 17:42:00,
2013-03-17 11:53:00,26.0,16.0,-100.00,NNW,339,5.0,15.0,65,0.02,,,0.02,0.000000,,2013-03-17 17:53:00,
2013-03-17 12:02:00,26.0,16.0,-100.00,NNW,339,5.0,15.0,65,0.02,,,0.02,0.000000,,2013-03-17 18:02:00,
2013-03-17 12:12:00,26.0,16.0,-100.00,NNW,339,5.0,15.0,65,0.02,,,0.02,0.000000,,2013-03-17 18:12:00,
2013-03-17 12:42:00,29.0,14.0,-100.00,West,259,12.0,20.0,52,0.03,,,0.05,0.000000,,2013-03-17 18:42:00,
2013-03-17 12:52:00,29.0,14.0,-100.00,West,259,12.0,20.0,52,0.03,,,0.05,0.000000,,2013-03-17 18:52:00,
2013-03-17 13:02:00,29.0,14.0,-100.00,West,259,12.0,20.0,52,0.03,,,0.05,0.000000,,2013-03-17 19:02:00,
2013-03-17 13:12:00,29.0,14.0,-100.00,West,259,12.0,20.0,52,0.03,,,0.05,0.000000,,2013-03-17 19:12:00,
2013-03-17 13:42:00,27.0,13.0,-100.00,WSW,253,10.0,28.0,54,0.01,,,0.06,0.000000,,2013-03-17 19:42:00,
2013-03-17 13:53:00,27.0,13.0,-100.00,WSW,253,10.0,28.0,54,0.01,,,0.06,0.000000,,2013-03-17 19:53:00,
2013-03-17 14:02:00,27.0,13.0,-100.00,WSW,253,10.0,28.0,54,0.01,,,0.06,0.000000,,2013-03-17 20:02:00,
2013-03-17 14:12:00,27.0,13.0,-100.00,WSW,253,10.0,28.0,54,0.01,,,0.06,0.000000,,2013-03-17 20:12:00,
2013-03-17 14:42:00,30.0,19.0,-100.00,SW,235,9.0,19.0,62,0.00,,,0.06,0.000000,,2013-03-17 20:42:00,
2013-03-17 14:52:00,30.0,19.0,-100.00,SW,235,9.0,19.0,62,0.00,,,0.06,0.000000,,2013-03-17 20:52:00,
2013-03-17 15:02:00,30.0,19.0,-100.00,SW,235,9.0,19.0,62,0.00,,,0.06,0.000000,,2013-03-17 21:02:00,
2013-03-17 15:12:00,30.0,19.0,-100.00,SW,235,9.0,19.0,62,0.00,,,0.06,0.000000,,2013-03-17 21:12:00,
2013-03-17 15:43:00,29.0,16.0,-100.00,SW,221,12.0,17.0,57,0.00,,,0.06,0.000000,,2013-03-17 21:43:00,
2013-03-17 15:52:00,29.0,16.0,-100.00,SW,221,12.0,17.0,57,0.00,,,0.06,0.000000,,2013-03-17 21:52:00,
2013-03-17 16:02:00,29.0,16.0,-100.00,SW,221,12.0,17.0,57,0.00,,,0.06,0.000000,,2013-03-17 22:02:00,
2013-03-17 16:12:00,29.0,16.0,-100.00,SW,221,12.0,17.0,57,0.00,,,0.06,0.000000,,2013-03-17 22:12:00,
2013-03-17 16:42:00,31.0,13.0,-100.00,WSW,247,15.0,21.0,47,0.00,,,0.06,0.000000,,2013-03-17 22:42:00,
2013-03-17 16:52:00,31.0,13.0,-100.00,WSW,247,15.0,21.0,47,0.00,,,0.06,0.000000,,2013-03-17 22:52:00,
2013-03-17 17:02:00,31.0,13.0,-100.00,WSW,247,15.0,21.0,47,0.00,,,0.06,0.000000,,2013-03-17 23:02:00,
2013-03-17 17:12:00,31.0,13.0,-100.00,WSW,247,15.0,21.0,47,0.00,,,0.06,0.000000,,2013-03-17 23:12:00,
2013-03-17 17:43:00,32.0,10.0,-100.00,WSW,256,13.0,26.0,40,0.00,,,0.06,0.000000,,2013-03-17 23:43:00,
2013-03-17 17:52:00,32.0,10.0,-100.00,WSW,256,13.0,26.0,40,0.00,,,0.06,0.000000,,2013-03-17 23:52:00,
2013-03-17 18:02:00,32.0,10.0,-100.00,WSW,256,13.0,26.0,40,0.00,,,0.06,0.000000,,2013-03-18 00:02:00,
2013-03-17 18:11:00,32.0,10.0,-100.00,WSW,256,13.0,26.0,40,0.00,,,0.06,0.000000,,2013-03-18 00:11:00,
2013-03-17 18:42:00,28.0,13.0,-100.00,SW,236,9.0,22.0,53,0.00,,,0.06,0.000000,,2013-03-18 00:42:00,
2013-03-17 18:52:00,28.0,13.0,-100.00,SW,236,9.0,22.0,53,0.00,,,0.06,0.000000,,2013-03-18 00:52:00,
2013-03-17 19:01:00,28.0,13.0,-100.00,SW,236,9.0,22.0,53,0.00,,,0.06,0.000000,,2013-03-18 01:01:00,
2013-03-17 19:12:00,28.0,13.0,-100.00,SW,236,9.0,22.0,53,0.00,,,0.06,0.000000,,2013-03-18 01:12:00,
2013-03-17 19:42:00,24.0,13.0,-100.00,SW,234,10.0,16.0,61,0.00,,,0.06,42.000000,,2013-03-18 01:42:00,
2013-03-17 19:52:00,24.0,13.0,-100.00,SW,234,10.0,16.0,61,0.00,,,0.06,42.000000,,2013-03-18 01:52:00,
2013-03-17 20:02:00,24.0,13.0,-100.00,SW,234,10.0,16.0,61,0.00,,,0.06,42.000000,,2013-03-18 02:02:00,
2013-03-17 20:12:00,24.0,13.0,-100.00,SW,234,10.0,16.0,61,0.00,,,0.06,42.000000,,2013-03-18 02:12:00,
2013-03-17 20:42:00,24.0,15.0,-100.00,West,260,5.0,12.0,68,0.00,,,0.06,5.000000,,2013-03-18 02:42:00,
2013-03-17 20:52:00,24.0,15.0,-100.00,West,260,5.0,12.0,68,0.00,,,0.06,5.000000,,2013-03-18 02:52:00,
2013-03-17 21:02:00,24.0,15.0,-100.00,West,260,5.0,12.0,68,0.00,,,0.06,5.000000,,2013-03-18 03:02:00,
2013-03-17 21:11:00,24.0,15.0,-100.00,West,260,5.0,12.0,68,0.00,,,0.06,5.000000,,2013-03-18 03:11:00,
2013-03-17 21:42:00,23.0,12.0,-100.00,SSE,164,11.0,15.0,62,0.00,,,0.06,0.000000,,2013-03-18 03:42:00,
2013-03-17 21:53:00,23.0,12.0,-100.00,SSE,164,11.0,15.0,62,0.00,,,0.06,0.000000,,2013-03-18 03:53:00,
2013-03-17 22:02:00,23.0,12.0,-100.00,SSE,164,11.0,15.0,62,0.00,,,0.06,0.000000,,2013-03-18 04:02:00,
2013-03-17 22:12:00,23.0,12.0,-100.00,SSE,164,11.0,15.0,62,0.00,,,0.06,0.000000,,2013-03-18 04:12:00,
2013-03-17 22:42:00,24.0,11.0,-100.00,SE,146,7.0,13.0,57,0.00,,,0.06,0.000000,,2013-03-18 04:42:00,
2013-03-17 22:52:00,24.0,11.0,-100.00,SE,146,7.0,13.0,57,0.00,,,0.06,0.000000,,2013-03-18 04:52:00,
2013-03-17 23:02:00,24.0,11.0,-100.00,SE,146,7.0,13.0,57,0.00,,,0.06,0.000000,,2013-03-18 05:02:00,
2013-03-17 23:12:00,24.0,11.0,-100.00,SE,146,7.0,13.0,57,0.00,,,0.06,0.000000,,2013-03-18 05:12:00,
2013-03-17 23:43:00,22.0,8.0,-100.00,SE,143,6.0,11.0,54,0.00,,,0.06,0.000000,,2013-03-18 05:43:00,
2013-03-17 23:52:00,22.0,8.0,-100.00,SE,143,6.0,11.0,54,0.00,,,0.06,0.000000,,2013-03-18 05:52:00,